Siemreap, Cambodia

4:01 PM ICT on February 10, 2016 (GMT +0700)
Siem Reap

Weather History for VDSR - June, 2014

Change the Weather History Date:

Tuesday, June 10, 2014

  Actual Average Record
Temperature  
Mean Temperature 88 °F -  
Max Temperature 93 °F - - ()
Min Temperature 82 °F - - ()
Cooling Degree Days 22    
Growing Degree Days 38 (Base 50)    
Moisture  
Dew Point 77 °F    
Average Humidity 75    
Maximum Humidity 89    
Minimum Humidity 56    
Precipitation  
Precipitation 0.00 in - - ()
Sea Level Pressure  
Sea Level Pressure 29.62 in    
Wind  
Wind Speed 6 mph ()    
Max Wind Speed 15 mph    
Max Gust Speed 26 mph    
Visibility 5.8 miles    
Events Rain    
T = Trace of Precipitation, MM = Missing Value Source: Averaged Metar Reports

Daily Weather History Graph

Daily Weather History Graph

Search for Another Location

Airport or City:

Trip Planner

Search our weather history database for the weather conditions in past years. The results will help you decide how hot, cold, wet, or windy it might be!

Date:

Astronomy

Jun. 10, 2014 Rise Set
Actual Time 5:37 AM ICT 6:30 PM ICT
Civil Twilight 5:13 AM ICT 6:54 PM ICT
Nautical Twilight 4:46 AM ICT 7:21 PM ICT
Astronomical Twilight 4:18 AM ICT 7:50 PM ICT
Moon 3:46 PM ICT 2:51 AM ICT
Length of Visible Light 13h 40m
Length of Day
12h 53m
Waxing Gibbous, 89% of the Moon is Illuminated
Jun 10
Waxing Gibbous
Jun 13
Full
Jun 20
Last Quarter
Jun 27
New
Jul 5
First Quarter

Hourly Weather History & Observations

Time (ICT) Temp. Heat Index Dew Point Humidity Pressure Visibility Wind Dir Wind Speed Gust Speed Precip Events Conditions
12:00 AM 82.4 °F 92.4 °F 78.8 °F 89% 29.68 in 5.6 mi SW 3.5 mph - N/A   Mostly Cloudy
12:30 AM 82.4 °F 92.4 °F 78.8 °F 89% 29.68 in 5.6 mi WSW 3.5 mph - N/A   Scattered Clouds
1:00 AM 82.4 °F 92.4 °F 78.8 °F 89% 29.68 in 5.6 mi Calm Calm - N/A   Mostly Cloudy
7:00 AM 82.4 °F 92.4 °F 78.8 °F 89% 29.65 in 5.6 mi WSW 4.6 mph - N/A   Scattered Clouds
7:30 AM 84.2 °F 96.1 °F 78.8 °F 84% 29.65 in 5.6 mi SW 8.1 mph - N/A   Scattered Clouds
8:00 AM 84.2 °F 96.1 °F 78.8 °F 84% 29.65 in 6.2 mi WSW 5.8 mph - N/A   Scattered Clouds
8:30 AM 86.0 °F 99.3 °F 78.8 °F 79% 29.68 in 6.2 mi WSW 8.1 mph - N/A   Scattered Clouds
9:00 AM 86.0 °F 96.9 °F 77.0 °F 74% 29.68 in 6.2 mi WSW 8.1 mph - N/A   Mostly Cloudy
9:30 AM 87.8 °F 99.7 °F 77.0 °F 70% 29.68 in 6.2 mi West 8.1 mph - N/A   Mostly Cloudy
10:00 AM 89.6 °F 102.2 °F 77.0 °F 66% 29.68 in 6.2 mi West 8.1 mph - N/A   Mostly Cloudy
10:30 AM 89.6 °F 99.8 °F 75.2 °F 62% 29.65 in 6.2 mi SW 12.7 mph - N/A   Scattered Clouds
11:00 AM 93.2 °F 105.0 °F 75.2 °F 56% 29.65 in 6.2 mi West 13.8 mph - N/A   Scattered Clouds
11:30 AM 91.4 °F 102.5 °F 75.2 °F 59% 29.65 in 5.0 mi West 13.8 mph 26.5 mph N/A Rain Rain
12:00 PM 87.8 °F 97.6 °F 75.2 °F 66% 29.65 in 5.6 mi West 4.6 mph - N/A   Scattered Clouds
12:30 PM 87.8 °F 97.6 °F 75.2 °F 66% 29.65 in 5.6 mi SSW 5.8 mph - N/A   Mostly Cloudy
1:00 PM 87.8 °F 97.6 °F 75.2 °F 66% 29.65 in - North - - N/A   Scattered Clouds
1:30 PM 89.6 °F 99.8 °F 75.2 °F 62% 29.59 in - North - - N/A   Scattered Clouds
2:00 PM 93.2 °F 107.2 °F 77.0 °F 59% 29.56 in - North - - N/A   Scattered Clouds
2:30 PM 93.2 °F 107.2 °F 77.0 °F 59% 29.56 in 5.6 mi SW 12.7 mph - N/A   Mostly Cloudy
3:00 PM 91.4 °F 105.1 °F 77.0 °F 63% 29.56 in 5.6 mi SW 15.0 mph - N/A   Mostly Cloudy
3:30 PM 91.4 °F 105.1 °F 77.0 °F 63% 29.53 in 5.6 mi WSW 10.4 mph - N/A   Mostly Cloudy
4:00 PM 82.4 °F 90.9 °F 77.0 °F 84% 29.53 in 5.6 mi West 5.8 mph - N/A Rain Light Rain
4:30 PM 82.4 °F 90.9 °F 77.0 °F 84% 29.53 in 5.6 mi WSW 5.8 mph - N/A   Mostly Cloudy
5:00 PM 84.2 °F 94.1 °F 77.0 °F 79% 29.53 in 5.6 mi West 6.9 mph - N/A   Mostly Cloudy
5:30 PM 84.2 °F 94.1 °F 77.0 °F 79% 29.53 in 5.6 mi WSW 5.8 mph - N/A   Mostly Cloudy
6:00 PM 84.2 °F 94.1 °F 77.0 °F 79% 29.53 in 5.6 mi SW 5.8 mph - N/A   Mostly Cloudy
6:30 PM 84.2 °F 94.1 °F 77.0 °F 79% 29.56 in 5.6 mi SSW 4.6 mph - N/A   Scattered Clouds
7:00 PM 84.2 °F 94.1 °F 77.0 °F 79% 29.56 in 5.6 mi SW 3.5 mph - N/A   Scattered Clouds
7:30 PM 86.0 °F 96.9 °F 77.0 °F 74% 29.59 in 5.6 mi SW 6.9 mph - N/A   Scattered Clouds
8:00 PM 86.0 °F 96.9 °F 77.0 °F 74% 29.59 in 5.6 mi SW 9.2 mph - N/A   Scattered Clouds
9:00 PM 84.2 °F 96.1 °F 78.8 °F 84% 29.62 in 5.6 mi SW 8.1 mph - N/A   Scattered Clouds
9:30 PM 84.2 °F 96.1 °F 78.8 °F 84% 29.65 in 6.2 mi WSW 5.8 mph - N/A   Scattered Clouds
10:00 PM 84.2 °F 96.1 °F 78.8 °F 84% 29.65 in 6.2 mi SW 5.8 mph - N/A   Scattered Clouds
10:30 PM 84.2 °F 96.1 °F 78.8 °F 84% 29.65 in 6.2 mi SW 6.9 mph - N/A   Scattered Clouds
11:00 PM 84.2 °F 96.1 °F 78.8 °F 84% 29.65 in 6.2 mi SW 5.8 mph - N/A   Scattered Clouds
11:30 PM 84.2 °F 96.1 °F 78.8 °F 84% 29.65 in 6.2 mi SW 4.6 mph - N/A   Scattered Clouds